User: anonymous   Login
Location: Fairmont
(43.6520°N, 94.4610°W)
Time: 00:35:37
(UTC-05:00)
Language:

Cosmos-2242 - Orbit

View from above orbital plane
View from above orbital plane
View from above satellite
View from above satellite

Ground track
Ground track

The orbit data is extracted from the following two-line orbital elements,

1 22626U 93024A   17233.44481007 +.00000241 +00000-0 +23756-4 0  9994
2 22626 082.5245 340.2955 0017524 263.5373 096.3849 14.87686161315558
Epoch (UTC): 21 August 2017 10:40:31
Eccentricity: 0.0017524
inclination: 82.5245°
perigee height: 593 km
apogee height: 617 km
right ascension of ascending node: 340.2955°
argument of perigee: 263.5373°
revolutions per day: 14.87686161
mean anomaly at epoch: 96.3849°
orbit number at epoch: 31555

The dashed part of the orbit path shows where the satellite is in the earth's shadow,  

DLR